Location: *
(47.2969°N, 10.2930°E)
Time: 06:07:48
(UTC+00:00)

Cosmos 1833 Rocket - Pass Details

Date: 09 April 2020
Orbit: 834 x 838 km, 71.0° (Epoch: 02 June)

Event Time Altitude Azimuth Distance (km) Brightness Sun altitude
Exits shadow 22:20:56 28° 280° (W) 1,539 4.2 -33.1°
Maximum altitude 22:22:29 32° 310° (NW) 1,406 4.2 -33.2°
Drops below altitude 10° 22:27:31 10° 13° (NNE) 2,460 5.8 -33.5°
Sets 22:30:15 0° 23° (NNE) 3,398 6.5 -33.6°
